Location: Cahas Mountain Overlook
(37.0833°N, 80.1000°W)
Time: 11:46:05
(UTC-04:00)

Vanguard 1 Rocket - Pass Details

Date: 10 February 2026
Orbit: 653 x 4214 km, 34.3° (Epoch: 15 March)

Event Time Altitude Azimuth Distance (km) Brightness Sun altitude
Rises 18:35:27 0° 275° (W) 6,426 13.5 -8.6°
Reaches altitude 10° 18:38:59 10° 274° (W) 5,778 12.9 -9.3°
Maximum altitude 18:59:26 79° 192° (SSW) 4,086 10.7 -13.3°
Enters shadow 19:24:07 13° 112° (ESE) 6,841 11.3 -18.2°
